GOES 9 1 23581U 95025A 08189.70501881 .00000027 00000-0 10000-3 0 6514 2 23581 4.4408 74.8848 0003319 316.3664 43.4750 0.98798877 48025 SARSAT 7 (NOAA 15) 1 25338U 98030A 08190.28589103 .00000183 00000-0 97140-4 0 5336 2 25338 98.5538 181.6079 0010334 346.8510 13.2412 14.24713432527807 GOES 11 1 26352U 00022A 08190.44666756 .00000088 00000-0 00000+0 0 8752 2 26352 0.4299 263.7832 0004413 295.9593 112.2627 1.00271986 29959 COSPAS 9 (NADEZHDA 6) 1 26384U 00033A 08190.17306013 -.00000013 00000-0 73029-5 0 3702 2 26384 98.4215 207.5152 0015399 206.5882 153.4540 14.64059959428619 SARSAT 8 (NOAA 16) 1 26536U 00055A 08190.45805738 .00000240 00000-0 15510-3 0 59 2 26536 99.1557 180.1011 0010831 160.8820 199.2759 14.12489217401770 GOES 12 1 26871U 01031A 08187.12278292 -.00000259 00000-0 00000+0 0 6247 2 26871 0.0480 140.8525 0003730 296.7148 175.3172 1.00274126 25526 SARSAT 9 (NOAA 17) 1 27453U 02032A 08190.41307990 .00000199 00000-0 10506-3 0 9959 2 27453 98.5330 254.4246 0012603 50.4798 309.7507 14.23987121313829 INSAT 3A 1 27714U 03013A 08190.69587314 -.00000259 00000-0 10000-3 0 1600 2 27714 0.0406 105.0732 0001788 13.8866 151.9880 1.00268491 19257 SARSAT 10 (NOAA 18) 1 28654U 05018A 08190.39443405 .00000372 00000-0 23050-3 0 4933 2 28654 98.8680 131.0645 0013275 253.5543 106.4163 14.11176832161464 MSG-2 1 28912U 05049B 08183.05694346 -.00000002 00000-0 00000+0 0 3881 2 28912 0.4838 230.4394 0001551 163.7126 265.4361 1.00270024 9327 SARSAT 11 (METOP-A) 1 29499U 06044A 08190.82597492 .00000073 00000-0 53320-4 0 5400 2 29499 98.7212 249.6427 0001279 94.5051 265.6248 14.21481756 89235